Location: St. Louis
(38.6270°N, 90.1994°W)
Time: 11:16:46
(UTC-06:00)

A-11 Canister half - Pass Details

Date: 14 December 2021
Orbit: 1524 x 1684 km, 47.3° (Epoch: 25 January)

Event Time Altitude Azimuth Distance (km) Brightness Sun altitude
Rises 20:57:37 0° 210° (SSW) 4,841 11.8 -49.3°
Reaches altitude 10° 21:00:52 10° 204° (SSW) 3,877 11.2 -49.9°
Enters shadow 21:01:12 11° 203° (SSW) 3,780 11.1 -50.0°
Maximum altitude 21:10:13 47° 135° (SE) 2,108 - -51.7°
Drops below altitude 10° 21:19:43 10° 65° (ENE) 3,951 - -53.5°
Sets 21:23:03 0° 60° (ENE) 4,941 - -54.2°
